Flag for Albania Weather past 2 weeks in Tirana, Albania

Now
73 °F

Partly cloudy.


Feels Like: 76 °F
Forecast: 46 / 72 °F
Wind: 10 mph from Southeast

Location: Tirana Airport

Current Time: Sep 23, 2014 at 2:26:22 AM

Latest Report: Sep 23, 2014 at 1:50 AM


Visibility: N/A

Pressure: 29.74 "Hg

Humidity: 65%

Dew point: 61 °F

Location of TiranaLocation

Historic Weather in Tirana — Graph

°F

Tirana temperature yesterday

Maximum temperature yesterday: 81 °F (at 12:50 PM)
Minimum temperature yesterday: 68 °F (at 6:50 AM)
Average temperature yesterday: 74 °F

Past Weeks' High & Low Weather Summary

 TemperatureHumidityPressure
High86 °F (Sep 12, 12:50 PM)94% (Sep 8, 1:20 AM)30.18 "Hg (Sep 8, 1:20 AM)
Low55 °F (Sep 17, 6:20 AM)37% (Sep 17, 2:50 PM)29.74 "Hg (Sep 23, 12:20 AM)
Average70 °F75%29.97 "Hg
* Reported Sep 8 1:20 AM — Sep 23 1:20 AM, Tirana, Weather by CustomWeather, © 2014

Note: Actual official high and low records may vary slightly from our data, if they occured in-between our weather recording intervals... More about our weather records

Advertising

Tirana weather history for previous 24 hours

 ConditionsComfort  
Time TempWeatherWind HumidityBarometerVisibility
1:20 AM
Sep 23
72 °FPartly cloudy.9 mph69%29.74 "HgN/A
12:50 AM73 °FPartly cloudy.9 mph65%29.74 "HgN/A
12:20 AM72 °FPartly cloudy.6 mph69%29.74 "HgN/A
11:50 PM
Sep 22
72 °FPartly cloudy.8 mph69%29.77 "HgN/A
11:20 PM73 °FPartly cloudy.7 mph65%29.77 "HgN/A
10:50 PM73 °FPartly cloudy.8 mph61%29.77 "HgN/A
10:20 PM72 °FPartly cloudy.9 mph65%29.77 "HgN/A
9:50 PM73 °FPartly cloudy.7 mph65%29.77 "HgN/A
9:20 PM73 °FPassing clouds.9 mph61%29.80 "HgN/A
8:50 PM73 °FPassing clouds.7 mph65%29.80 "HgN/A
8:20 PM77 °FPassing clouds.9 mph65%29.80 "HgN/A
7:50 PM75 °FThunderstorms. Passing clouds.5 mph74%29.77 "HgN/A
7:20 PM75 °FPartly sunny.5 mph74%29.77 "HgN/A
6:50 PM77 °FBroken clouds.5 mph74%29.77 "HgN/A
6:20 PM77 °FPartly sunny.5 mph69%29.80 "HgN/A
5:50 PM79 °FPartly sunny.6 mph61%29.80 "HgN/A
5:20 PM79 °FScattered clouds.8 mph61%29.80 "HgN/A
4:50 PM79 °FScattered clouds.8 mph61%29.80 "HgN/A
4:20 PM79 °FScattered clouds.8 mph61%29.80 "HgN/A
3:50 PM81 °FScattered clouds.8 mph62%29.80 "HgN/A
3:20 PM81 °FScattered clouds.10 mph58%29.80 "HgN/A
2:50 PM79 °FScattered clouds.10 mph61%29.83 "HgN/A
2:20 PM81 °FScattered clouds.13 mph58%29.83 "HgN/A
1:50 PM81 °FScattered clouds.13 mph62%29.83 "HgN/A
1:20 PM79 °FScattered clouds.10 mph61%29.83 "HgN/A
12:50 PM81 °FPartly sunny.12 mph66%29.83 "HgN/A
12:20 PM79 °FPartly sunny.7 mph70%29.86 "HgN/A
11:50 AM77 °FPartly sunny.7 mph69%29.86 "HgN/A
11:20 AM77 °FPassing clouds.5 mph69%29.86 "HgN/A
10:50 AM75 °FPartly sunny.7 mph78%29.86 "HgN/A
10:20 AM70 °FBroken clouds.5 mph94%29.89 "HgN/A
9:50 AM70 °FBroken clouds.9 mph88%29.89 "HgN/A
9:20 AM70 °FRain. Cloudy.8 mph88%29.89 "Hg4 mi
8:50 AM70 °FBroken clouds.9 mph88%29.89 "HgN/A
8:20 AM70 °FThunderstorms. Broken clouds.6 mph88%29.86 "HgN/A
7:50 AM70 °FLight rain. Broken clouds.3 mph88%29.86 "HgN/A
7:20 AM68 °FPartly cloudy.7 mph94%29.89 "HgN/A
6:50 AM68 °FThundershowers. Partly cloudy.7 mph94%29.86 "Hg4 mi
6:20 AM70 °FThundershowers. Partly cloudy.9 mph88%29.86 "HgN/A
5:50 AM70 °FPartly cloudy.3 mph88%29.86 "HgN/A
5:20 AM70 °FThundershowers. Overcast.3 mph94%29.89 "Hg5 mi
4:50 AM70 °FPassing clouds.5 mph94%29.86 "Hg5 mi
4:20 AM70 °FPartly cloudy.3 mph94%29.89 "HgN/A
3:50 AM70 °FPartly cloudy.2 mph88%29.89 "HgN/A
3:20 AM70 °FPartly cloudy.3 mph94%29.89 "Hg5 mi
2:50 AM70 °FLight rain. Partly cloudy.2 mph94%29.92 "HgN/A
2:20 AM70 °FPartly cloudy.3 mph94%29.89 "HgN/A
Weather by CustomWeather, © 2014

See weather overviewHow to use our weather pages